CAPE
0 0 0 0 0 0 0 0 0 0 0 0 29 72 93 107 580 665 1056 1033 954 795 580 537 607 538 604 804 974 1184 1231 1964 1414 1255 1082 770 452 336 218 512 1079 1988 2608 2621
0 0 0 0 0 0 0 0 0 0 0 0 0 0 6 7 203 490 846 1053 1038 885 670 621 666 610 659 908 1191 1544 1544 2065 1971 1416 1360 722 436 241 346 928 1831 2501 2545 2834
0 0 0 0 0 0 0 0 0 0 0 0 0 0 0 0 8 125 459 880 967 968 792 699 607 683 640 876 1322 1709 2155 2106 2192 2289 1324 1128 654 715 706 1327 1969 2372 2394 2490
0 0 0 0 0 0 0 0 0 0 0 0 0 9 26 13 33 171 273 726 960 1002 942 743 608 604 711 999 1368 1775 2173 2406 2304 2155 1807 2434 973 644 831 1507 1472 1779 2277 2255
0 0 0 0 0 0 0 0 0 0 0 0 0 0 0 0 1 133 367 489 913 1009 1053 906 743 602 642 889 1242 1633 2190 2806 2894 2624 2608 1869 1936 572 1085 1235 2626 3133 2879 2426
0 0 0 0 0 0 0 0 0 0 0 0 0 0 0 0 0 15 196 383 781 893 1003 1113 1031 613 757 831 1152 1557 2476 3520 3243 2657 2333 3381 2854 1806 1452 2131 1793 1759 1745 1762
0 0 0 0 0 0 0 0 0 0 0 0 0 0 0 0 0 0 17 257 593 977 969 1082 1192 1092 760 875 1189 1616 3110 3651 3271 2650 2740 2816 3209 3009 3297 2967 2065 2474 1381 1433
0 0 0 0 0 0 0 0 0 0 0 0 0 0 0 0 0 0 0 2 440 747 963 1007 1231 1333 1249 1044 1687 2143 3079 3358 2759 2747 3517 3672 3795 2061 2059 2794 2047 1784 1417 1278
0 0 0 0 0 0 0 0 0 0 0 0 0 0 0 0 0 0 0 0 0 435 820 959 1085 1260 1467 1597 2189 2624 3207 3596 3564 2892 3814 3824 3603 3405 2315 3209 3621 2197 2868 1468
0 0 0 0 0 0 0 0 0 0 0 0 0 0 0 0 0 0 0 0 0 81 646 883 899 1083 1270 1506 1845 2475 3242 3586 3469 2673 3112 2958 3422 3564 3555 3642 3678 3456 3225 2735
0 0 0 0 0 0 0 0 0 0 0 0 0 0 0 0 0 0 0 0 0 92 459 877 1015 1000 1155 1307 1379 1976 2583 3105 3012 3124 3324 3466 3429 3056 3299 2981 3608 3755 3582 3663
0 0 0 0 0 0 0 0 0 0 0 0 0 0 0 0 0 0 0 0 0 1 119 368 477 790 1005 1259 1339 1495 1830 2109 2401 2869 3427 3474 3571 3485 3125 3510 3509 3408 3792 3813
0 0 0 0 0 0 0 0 0 0 0 0 0 0 0 0 0 0 0 0 0 0 0 47 115 327 814 1166 2021 1353 1476 1640 1863 2568 2327 3012 3378 3283 3533 3676 3624 3636 3818 3939
0 0 0 0 0 0 0 0 0 0 0 0 0 0 0 0 0 0 0 0 0 0 0 0 43 210 383 1138 2201 2577 1606 1367 1583 1807 2170 2970 3436 3475 3473 3609 3768 3810 3870 4069
0 0 0 0 0 0 0 0 0 0 0 0 0 0 0 0 0 0 0 0 0 0 0 1 119 124 228 796 2142 2401 1916 2149 1853 2553 2556 2921 3361 3591 3715 3727 3794 3823 3908 3924
0 0 0 0 0 0 0 0 0 0 0 0 0 0 0 0 0 0 0 0 0 0 0 0 5 333 617 1031 1440 1615 2207 2080 2240 2837 2758 3103 3460 3790 3781 3845 3885 3988 3934 4046
0 0 0 0 0 0 0 0 0 0 0 0 0 0 0 0 0 0 0 0 0 0 0 0 0 137 494 539 1154 1735 2304 1898 2423 2727 3032 3295 3527 3756 3920 3764 3812 4081 4136 3977
0 0 0 0 0 0 0 0 0 0 0 0 0 0 0 0 0 0 0 0 0 0 0 0 0 0 208 492 161 1267 1423 2513 2713 3033 3112 3407 3589 3707 3797 4012 3943 4140 4123 4107
0 0 0 0 0 0 0 0 0 0 0 0 0 0 0 0 0 0 0 0 0 0 0 0 0 0 0 0 74 685 1519 1650 2189 3144 3257 3453 3576 3611 3891 4048 3985 3559 3609 3541
0 0 0 0 0 0 0 0 0 0 0 0 0 0 0 0 0 0 0 0 0 0 0 0 0 0 0 0 13 380 1516 2197 2996 3177 3279 3264 3635 3934 3977 3671 3766 3425 3279 3175
3 1 0 0 0 0 0 0 6 0 30 5 0 0 0 89 50 201 198 81 0 0 0 0 0 0 155 112 471 1042 1451 2220 2948 2324 2457 2983 3572 4111 3673 3937 3907 3874 3705 3596
45 18 0 0 0 0 0 0 0 0 0 0 0 0 0 0 0 1 22 195 355 180 0 0 0 0 130 973 1166 2711 2962 2753 2845 2719 2538 3131 3582 3138 2836 4053 3914 3948 4089 3926
18 10 12 0 0 0 0 0 0 0 0 0 0 0 0 0 0 0 14 321 651 669 13 80 338 121 1136 1514 1632 2210 3674 3507 2813 2781 3270 3445 3597 3399 3755 3898 3795 3332 3597 3146
18 22 39 32 0 0 7 0 0 0 0 0 0 0 0 0 0 0 59 519 1245 504 1174 1681 1267 1610 2165 2322 2403 2257 2700 2906 3002 2989 3279 3419 3612 3589 3379 3285 3355 3204 3076 3091
32 61 50 26 16 12 12 9 0 0 0 0 0 0 0 0 0 0 33 1317 1587 1009 2061 2155 2457 2583 3073 2896 2865 2706 2637 2901 3017 3300 3359 3499 3516 3541 3659 3388 1893 3191 3617 1419
4 5 16 14 7 30 13 15 15 0 6 1 0 0 0 0 0 0 594 1822 1966 2193 2345 2876 3022 2603 2544 2105 2083 3467 3382 2796 2924 3068 3058 3010 3123 3360 3280 2812 773 1 0 0
CIN
-0 -0 -0 -0 -0 -0 -0 -0 -0 -0 -0 -0 -25 -1 -1 -14 -35 -17 -43 -64 -55 -68 -60 -62 -53 -41 -28 -16 -20 -24 -21 -4 -16 -20 -26 -46 -75 -72 -74 -37 -13 -2 -1 -1
-0 -0 -0 -0 -0 -0 -0 -0 -0 -0 -0 -0 -0 -0 -19 -10 -28 -18 -35 -59 -52 -34 -45 -68 -72 -65 -58 -39 -26 -13 -17 -2 -7 -21 -23 -51 -72 -63 -50 -10 -0 -0 -1 -1
-0 -0 -0 -0 -0 -0 -0 -0 -0 -0 -0 -0 -0 -0 -0 -0 -21 -26 -27 -40 -49 -42 -43 -61 -81 -84 -87 -67 -50 -28 -7 -7 -3 -0 -17 -27 -46 -33 -26 -0 -0 -0 -2 -0
-0 -0 -0 -0 -0 -0 -0 -0 -0 -0 -0 -0 -0 -11 -4 -8 -15 -34 -21 -29 -42 -47 -39 -38 -60 -83 -87 -90 -67 -42 -11 -2 -0 -0 -2 -0 -61 -65 -32 -0 -0 -0 -0 -0
-0 -0 -0 -0 -0 -0 -0 -0 -0 -0 -0 -0 -0 -0 -0 -0 -9 -14 -24 -31 -44 -38 -37 -28 -63 -86 -97 -87 -75 -67 -27 -3 -0 -2 -0 -24 -4 -64 -6 -0 -0 -0 -0 -0
-0 -0 -0 -0 -0 -0 -0 -0 -0 -0 -0 -0 -0 -0 -0 -0 -0 -26 -16 -22 -36 -31 -44 -44 -44 -61 -68 -71 -53 -39 -16 -2 -0 -9 -26 -0 -1 -13 -7 -0 -0 -0 -0 -0
-0 -0 -0 -0 -0 -0 -0 -0 -0 -0 -0 -0 -0 -0 -0 -0 -0 -0 -15 -17 -26 -32 -40 -44 -47 -42 -73 -81 -80 -71 -10 -8 -8 -11 -9 -11 -0 -1 -0 -0 -0 -0 -0 -0
-0 -0 -0 -0 -0 -0 -0 -0 -0 -0 -0 -0 -0 -0 -0 -0 -0 -0 -0 -4 -17 -31 -46 -59 -60 -54 -64 -79 -71 -56 -18 -22 -45 -31 -4 -1 -1 -35 -20 -0 -0 -0 -0 -0
-0 -0 -0 -0 -0 -0 -0 -0 -0 -0 -0 -0 -0 -0 -0 -0 -0 -0 -0 -0 -0 -21 -36 -60 -55 -64 -75 -79 -78 -82 -56 -59 -51 -80 -20 -13 -17 -14 -22 -0 -0 -1 -0 -0
-0 -0 -0 -0 -0 -0 -0 -0 -0 -0 -0 -0 -0 -0 -0 -0 -0 -0 -0 -0 -0 -29 -17 -46 -76 -64 -86 -89 -101 -114 -113 -108 -106 -104 -68 -74 -45 -33 -25 -4 -0 -0 -0 -1
-0 -0 -0 -0 -0 -0 -0 -0 -0 -0 -0 -0 -0 -0 -0 -0 -0 -0 -0 -0 -0 -28 -19 -42 -60 -75 -100 -108 -127 -150 -161 -159 -154 -127 -100 -67 -66 -77 -56 -42 -13 -8 -5 -0
-0 -0 -0 -0 -0 -0 -0 -0 -0 -0 -0 -0 -0 -0 -0 -0 -0 -0 -0 -0 -0 -2 -16 -29 -38 -67 -79 -126 -138 -151 -187 -183 -209 -167 -137 -126 -93 -73 -76 -54 -42 -35 -14 -9
-0 -0 -0 -0 -0 -0 -0 -0 -0 -0 -0 -0 -0 -0 -0 -0 -0 -0 -0 -0 -0 -0 -0 -41 -43 -57 -97 -118 -140 -154 -196 -201 -209 -222 -230 -162 -133 -121 -91 -77 -73 -51 -39 -24
-0 -0 -0 -0 -0 -0 -0 -0 -0 -0 -0 -0 -0 -0 -0 -0 -0 -0 -0 -0 -0 -0 -0 -0 -117 -91 -95 -129 -129 -169 -186 -213 -212 -238 -246 -216 -180 -175 -136 -120 -103 -78 -56 -34
-0 -0 -0 -0 -0 -0 -0 -0 -0 -0 -0 -0 -0 -0 -0 -0 -0 -0 -0 -0 -0 -0 -0 -18 -129 -122 -128 -145 -148 -207 -236 -197 -194 -207 -226 -246 -249 -197 -144 -132 -116 -103 -68 -53
-0 -0 -0 -0 -0 -0 -0 -0 -0 -0 -0 -0 -0 -0 -0 -0 -0 -0 -0 -0 -0 -0 -0 -0 -143 -141 -145 -168 -190 -228 -266 -259 -258 -200 -249 -268 -238 -188 -175 -157 -144 -104 -87 -67
-0 -0 -0 -0 -0 -0 -0 -0 -0 -0 -0 -0 -0 -0 -0 -0 -0 -0 -0 -0 -0 -0 -0 -0 -0 -175 -154 -148 -169 -192 -253 -311 -299 -300 -268 -267 -252 -219 -196 -170 -127 -100 -79 -68
-0 -0 -0 -0 -0 -0 -0 -0 -0 -0 -0 -0 -0 -0 -0 -0 -0 -0 -0 -0 -0 -0 -0 -0 -0 -0 -170 -154 -148 -200 -257 -305 -311 -326 -300 -282 -269 -254 -214 -180 -193 -159 -120 -91
-0 -0 -0 -0 -0 -0 -0 -0 -0 -0 -0 -0 -0 -0 -0 -0 -0 -0 -0 -0 -0 -0 -0 -0 -0 -0 -0 -0 -247 -225 -282 -322 -378 -346 -350 -328 -297 -274 -224 -223 -225 -164 -127 -110
-0 -0 -0 -0 -0 -0 -0 -0 -0 -0 -0 -0 -0 -0 -0 -0 -0 -0 -0 -0 -0 -0 -0 -0 -0 -0 -0 -0 -424 -249 -274 -289 -344 -365 -385 -345 -301 -262 -257 -248 -184 -183 -163 -137
-0 -0 -0 -0 -0 -0 -0 -0 -0 -0 -2 -8 -0 -0 -0 -383 -416 -409 -412 -466 -0 -0 -0 -0 -0 -0 -356 -437 -332 -223 -278 -281 -335 -379 -399 -379 -321 -239 -237 -182 -174 -158 -147 -114
-0 -0 -0 -0 -0 -0 -0 -0 -0 -0 -0 -0 -0 -0 -0 -0 -0 -179 -578 -416 -371 -401 -0 -0 -0 -0 -441 -333 -347 -198 -243 -316 -360 -363 -373 -357 -321 -326 -344 -190 -179 -148 -99 -83
-0 -0 -0 -0 -0 -0 -0 -0 -0 -0 -0 -0 -0 -0 -0 -0 -0 -0 -512 -400 -300 -311 -337 -279 -318 -432 -325 -383 -372 -297 -276 -305 -394 -401 -353 -320 -292 -303 -225 -222 -183 -207 -150 -171
-0 -0 -0 -0 -0 -0 -0 -0 -0 -0 -0 -0 -0 -0 -0 -0 -0 -0 -501 -305 -157 -283 -160 -180 -230 -239 -254 -340 -353 -356 -368 -389 -384 -392 -347 -327 -286 -275 -294 -281 -218 -204 -198 -177
-0 -0 -0 -0 -0 -0 -0 -0 -0 -0 -0 -0 -0 -0 -0 -0 -0 -0 -519 -146 -130 -187 -151 -162 -173 -206 -219 -329 -327 -349 -402 -388 -363 -331 -313 -300 -266 -267 -231 -208 -595 -181 -106 -524
-0 -0 -0 -0 -0 -0 -0 -0 -0 -0 -0 -0 -0 -0 -0 -0 -0 -0 -233 -74 -103 -113 -141 -89 -120 -225 -272 -406 -443 -243 -282 -349 -310 -290 -271 -252 -242 -240 -226 -278 -730 -0 -0 -0
Wind_Speed
24 20 26 26 24 20 16 16 20 16 10 13 16 15 13 13 18 18 19 20 22 23 23 22 22 21 20 19 19 19 18 16 13 12 12 11 10 9 9 9 9 8 9 9
19 28 23 21 20 20 22 17 20 13 7 12 15 15 14 12 17 18 19 22 23 22 22 22 23 22 22 21 20 19 19 18 15 12 11 10 9 10 10 9 9 8 9 8
24 14 24 23 21 23 23 23 18 16 14 15 14 16 15 14 14 15 19 20 21 22 23 24 24 24 23 22 22 20 19 18 17 15 10 9 9 9 10 10 9 9 9 9
24 17 25 24 26 24 25 23 19 18 12 13 16 17 21 22 17 18 18 20 22 24 24 23 25 25 25 23 21 21 19 19 17 17 13 13 12 11 11 11 10 9 11 10
20 26 23 28 25 25 20 16 18 20 17 17 22 11 15 13 17 19 19 21 23 24 25 25 26 26 26 23 22 20 20 19 18 18 16 13 14 12 9 10 10 10 10 11
27 16 25 23 18 23 13 16 13 15 16 21 23 21 19 17 18 18 19 19 22 23 25 25 24 23 23 22 21 20 20 19 19 19 20 17 16 14 12 11 10 10 10 10
26 25 18 15 24 20 22 20 11 13 18 19 22 23 18 8 19 20 18 20 22 23 23 24 24 23 23 25 24 21 20 20 20 21 20 20 18 17 15 12 11 10 10 9
22 23 30 24 25 21 28 24 11 17 15 17 17 22 23 23 20 6 19 17 19 21 21 23 26 24 24 25 24 23 20 20 22 22 20 18 19 15 14 14 13 11 11 10
22 24 28 20 22 24 26 28 26 12 5 9 14 19 16 13 21 24 23 19 18 21 23 25 26 26 25 24 23 23 22 22 22 24 19 19 19 19 16 16 14 13 11 10
15 19 18 24 26 26 20 24 22 16 16 19 13 19 13 22 22 21 23 22 20 21 22 23 23 25 24 26 25 25 24 24 24 22 20 18 19 19 18 15 16 15 13 14
14 15 22 24 28 28 23 19 25 17 17 12 11 12 15 18 17 23 22 22 20 20 20 21 22 23 24 22 23 24 25 24 23 22 21 20 19 21 19 18 17 17 15 14
14 11 12 25 19 25 28 24 29 14 22 18 15 7 7 6 16 18 19 20 19 19 18 19 20 20 21 23 23 25 25 25 25 21 21 22 20 20 20 19 19 18 17 16
3 14 15 15 21 24 28 28 25 24 16 21 17 5 8 7 1 3 9 12 14 14 13 14 15 17 19 20 20 23 24 26 24 22 23 21 21 21 21 21 20 20 19 19
7 12 22 17 15 18 28 30 28 28 21 17 18 15 11 5 7 10 7 6 8 9 12 13 14 15 16 18 17 20 22 22 22 23 23 22 22 23 21 20 20 20 19 19
8 14 7 13 1 5 13 27 30 30 26 26 18 21 18 11 6 4 5 4 1 4 8 11 13 15 16 16 16 19 21 19 20 20 21 21 21 20 18 19 20 19 19 19
7 4 6 15 10 7 10 12 15 25 28 26 25 22 10 11 11 17 18 15 14 14 7 9 12 13 15 15 17 17 19 20 19 19 22 20 19 19 20 19 20 19 20 20
7 6 7 15 12 10 16 22 20 18 18 17 23 16 15 18 13 13 12 13 14 15 15 11 11 13 13 13 14 18 18 17 19 20 18 19 18 19 19 18 17 18 19 18
8 8 8 7 6 18 10 10 25 24 20 20 17 15 15 14 16 17 17 18 19 20 17 15 14 12 13 14 14 14 15 17 18 19 19 18 19 19 17 18 21 20 18 19
13 9 8 11 13 11 6 5 8 10 16 17 18 13 18 18 19 20 18 18 19 21 19 17 15 14 13 11 13 13 16 18 19 19 20 20 19 18 18 21 20 15 15 16
14 12 10 8 17 19 3 18 8 6 11 11 5 8 6 8 15 12 14 17 16 18 17 18 19 17 16 15 13 14 17 17 19 21 21 17 17 18 19 17 15 13 15 15
13 12 15 14 13 9 11 7 3 13 7 8 1 4 5 6 8 16 21 22 18 16 18 16 16 15 15 11 11 13 15 19 19 15 17 16 16 15 14 14 14 14 15 14
11 11 12 16 18 23 10 12 15 11 10 13 12 12 13 14 13 15 17 21 20 20 19 20 15 13 11 10 11 13 15 14 12 13 15 14 14 13 14 15 14 15 15 16
14 12 11 11 11 11 9 13 14 14 16 16 18 16 17 19 18 18 18 19 20 18 16 12 10 9 9 9 11 12 11 11 12 13 13 13 14 14 12 15 14 13 15 14
17 16 14 16 18 22 18 18 20 19 20 21 21 23 20 24 22 20 19 19 17 15 12 9 8 9 8 6 9 10 11 12 13 13 13 12 13 14 14 12 12 12 13 13
13 13 18 21 22 23 24 18 22 25 22 24 25 25 22 22 25 24 23 20 16 12 8 9 6 7 5 4 6 9 11 13 13 13 12 13 12 13 12 8 2 10 12 5
17 24 19 18 16 15 18 17 17 19 18 18 22 23 24 23 24 22 23 16 7 5 6 4 5 6 6 7 6 4 6 9 9 10 9 8 7 9 8 8 5 14 13 12
Wind_Direction
190 200 207 204 214 227 228 221 227 209 212 221 230 231 233 189 197 206 190 193 194 197 193 194 196 196 197 198 196 197 201 196 196 201 201 206 209 209 218 223 224 227 234 232
184 216 212 216 209 223 231 229 227 228 161 233 233 233 231 213 205 208 197 196 203 193 191 194 194 197 198 198 200 199 204 200 202 202 208 210 209 212 216 214 218 223 221 217
199 203 213 207 210 212 222 226 229 231 201 230 256 251 233 211 211 211 209 201 202 198 194 191 195 198 197 200 201 200 201 202 203 215 201 203 217 229 211 217 213 211 216 212
222 198 199 206 216 208 219 216 237 241 222 241 197 253 223 220 205 206 208 201 201 199 196 194 194 198 200 201 200 201 200 202 202 203 202 204 209 207 212 213 215 214 210 218
199 213 194 211 212 211 231 220 219 235 242 250 248 248 255 195 216 208 210 204 202 200 195 199 198 198 203 200 200 200 200 201 203 197 216 198 217 212 210 219 216 212 210 222
224 207 215 219 213 221 211 222 222 230 234 239 235 240 242 232 213 221 209 207 201 203 199 199 203 199 203 203 203 200 200 204 203 198 202 206 205 220 211 209 214 222 217 210
211 216 218 208 213 205 201 195 195 208 217 235 226 235 235 252 233 215 218 204 201 200 202 198 199 201 200 202 202 202 198 201 202 204 205 209 212 207 219 213 211 223 216 215
204 212 202 192 207 196 196 204 211 211 219 226 215 233 234 233 239 238 235 216 197 200 202 202 198 200 203 203 200 202 196 200 203 205 208 207 210 215 216 214 229 218 227 214
196 225 183 200 197 199 191 214 217 253 184 271 225 215 241 254 219 223 230 222 206 196 198 204 203 201 199 201 203 199 199 199 201 202 203 206 208 215 216 221 207 226 221 222
261 220 184 190 195 209 210 203 213 227 243 241 224 232 226 210 215 219 214 212 205 198 199 203 206 206 204 201 201 199 201 200 201 204 204 207 208 210 215 211 216 215 218 218
254 242 182 182 201 194 199 200 214 226 232 217 235 232 209 229 210 215 211 210 202 197 196 201 204 207 208 206 202 202 201 202 201 202 203 206 207 208 210 214 211 213 213 206
219 243 204 203 197 211 204 205 202 216 209 240 282 262 113 227 215 215 214 208 211 206 202 202 203 204 204 205 208 204 205 205 206 204 202 203 204 206 208 210 210 207 211 207
159 223 212 185 200 203 218 201 209 218 231 209 221 209 122 117 148 218 232 226 216 219 226 221 211 203 206 207 208 212 206 210 207 204 204 206 207 205 206 206 208 206 204 206
258 249 225 215 213 198 213 209 214 213 223 224 209 235 161 205 143 147 168 199 218 211 227 232 232 218 213 210 207 208 212 211 209 204 208 208 207 207 206 206 206 207 205 204
317 223 241 252 315 292 243 214 209 218 222 227 228 213 239 252 229 237 314 318 352 213 230 225 226 223 217 212 211 207 212 209 210 203 208 208 211 210 206 207 207 208 207 206
335 197 259 247 216 226 242 233 244 236 224 233 240 247 221 216 302 270 269 291 286 275 254 247 235 228 217 212 212 211 210 209 205 205 208 209 207 206 207 207 208 207 208 207
289 288 238 229 210 240 242 224 221 228 233 240 237 244 249 258 247 258 276 287 294 286 276 258 240 233 234 229 217 215 208 201 203 211 206 207 207 206 207 207 210 213 212 210
272 241 259 257 181 237 248 212 208 224 229 228 245 254 258 249 248 254 256 263 269 274 274 263 252 232 223 233 241 215 208 203 204 204 206 205 205 207 202 204 209 210 207 212
215 257 246 238 227 284 213 158 218 218 229 233 247 254 245 244 247 251 257 263 263 260 264 263 266 270 276 261 242 233 207 202 204 206 208 205 203 201 201 208 211 209 212 215
202 223 250 215 240 232 241 225 203 292 258 257 218 244 286 267 245 247 248 251 272 263 267 275 276 273 259 248 246 213 209 205 204 206 208 202 202 203 206 206 206 206 210 214
190 208 224 229 251 250 265 86 321 195 72 51 55 323 320 303 325 320 308 300 293 297 302 288 278 267 263 244 221 216 207 212 213 207 206 204 205 204 204 201 200 199 201 204
202 201 207 232 243 238 268 294 237 15 338 329 318 316 314 309 304 297 300 299 294 286 282 278 274 261 246 223 208 210 205 213 203 209 206 201 199 200 195 200 197 198 199 204
243 258 263 217 229 265 285 264 313 316 307 307 307 308 310 301 301 302 305 303 294 287 281 274 272 244 231 221 209 203 203 194 190 195 195 193 192 196 199 188 195 198 204 215
260 271 262 265 258 269 275 278 281 292 294 300 297 299 298 299 302 302 303 301 289 277 271 263 241 228 221 211 203 199 175 179 181 185 190 187 187 188 191 186 195 206 205 209
272 275 253 259 257 264 268 272 277 278 282 285 288 289 292 294 294 305 304 294 283 262 254 240 211 205 169 155 180 171 165 176 176 177 179 179 185 186 180 183 231 217 213 246
249 251 247 251 265 270 264 259 271 276 285 287 290 288 289 286 287 298 288 292 292 241 225 185 101 119 120 96 69 67 151 176 178 171 173 172 158 166 175 168 121 51 38 24